Погода в Еланцах

Россия / Иркутская область     52°47′50″N   106°23′57″E
темп.,
°C
ветер,
м/с
пор.,
м/с
влажн.,
%
обл.,
%
осадки,
мм/ч
давл.,
гПа
погр.,
м
12 мая, ср
ср1223:00+5зсз337788 0.0 101434
02:00+4з337876 0.1 101437
05:00+3з348372 0.1 101347
08:00+6зюз366440 0.3 1011385
11:00+9з5850100 0.1 10091544
14:00+9ссз586047 1.0 1010739
17:00+7с3558100 0.1 10111286
20:00+6сз48482 0.1 1012366
13 мая, чт
чт1323:00+3сз33575 0.0 101432
02:00+1сз346540 0.0 101552
05:000зсз456811 0.0 101559
08:00+4сз47512 0.0 1015856
11:00+5ссз4539100 0.0 10141489
14:00+6ссз2539100 0.0 10132088
17:00+6с3542100 0.0 10141799
20:00+6ссз484845 0.1 1014369
14 мая, пт
пт1423:00+3сз48590 0.0 1017210
02:00+2зсз510670 0.0 1017273
05:000зсз46773 0.0 1018117
08:00+4ссз34634 0.0 1018454
11:00+6ююв23553 0.0 1017883
14:00+7ю33472 0.0 1015950
17:00+7ю34470 0.0 1015425
20:00+4всв11570 0.0 101615
15 мая, сб
сб1523:00+3с11563 0.0 101610
02:00+2ссв226116 0.0 101614
05:00+1ссв226637 0.0 101511
08:00+5всв22576 0.0 1015154
11:00+8ю354965 0.0 1016939
14:00+11зюз474377 0.0 10141413
17:00+11зсз693290 0.0 10151102
20:00+9зсз593850 0.0 1017615
16 мая, вс
вс1623:00+5з345296 0.0 101959
02:00+4з3668100 0.0 1020104
05:00+6з41073100 0.0 1019531
08:00+6зюз4980100 0.3 1019595
11:00+10зюз476120 0.0 1018838
14:00+14зюз484636 0.0 10141428
17:00+14юз584230 0.0 10121455
20:00+12зюз33490 0.0 101122